Location: Austin
(30.3000°N, 97.7500°W)
Time: 03:11:39
(UTC-05:00)

Resurs 1-4 Rocket - Pass Details

Date: 10 May 2025
Orbit: 798 x 812 km, 98.8° (Epoch: 11 May)

Event Time Altitude Azimuth Distance (km) Brightness Sun altitude
Rises 03:37:01 0° 13° (NNE) 3,310 6.2 -32.7°
Reaches altitude 10° 03:39:21 10° 14° (NNE) 2,376 5.3 -32.4°
Enters shadow 03:43:14 51° 20° (NNE) 999 2.8 -31.9°
